Location: Fours
(44.3167°N, 6.7000°E)
Time: 06:18:26
(UTC+00:00)

Cosmos 2218 Rocket - Pass Details

Date: 01 June 2022
Orbit: 956 x 1005 km, 82.9° (Epoch: 03 July)

Event Time Altitude Azimuth Distance (km) Brightness Sun altitude
Rises 02:38:24 0° 347° (NNW) 3,683 7.5 -11.0°
Reaches altitude 10° 02:40:57 10° 343° (NNW) 2,738 6.8 -10.7°
Maximum altitude 02:47:01 53° 269° (W) 1,197 4.2 -10.0°
Drops below altitude 10° 02:53:07 10° 194° (SSW) 2,753 5.9 -9.2°
Enters shadow 02:54:43 - 191° (S) 3,339 6.3 -9.0°
